{"data":{"norad_id":22314,"intl_designator":"1993-003B","name":"TDRS 6","alt_names":[],"object_type":"PAYLOAD","status":"ACTIVE","operator":null,"country":"US","launch_date":"1993-01-13","launch_site_code":"AFETR","launch_vehicle":null,"mission":null,"orbit_class":"UNKNOWN","rcs_meters":28.6701,"size_class":null,"mass_kg":null,"dimensions":null,"purposes":["comms"],"wikipedia_slug":null,"has_3d_model":false,"image_url":null,"decayed_at":null,"tle_current":{"epoch":"2026-09-20T05:08:11.670144Z","epoch_age_seconds":35973,"freshness":"FRESH","line1":"1 22314U 93003B   26263.21402396 -.00000292  00000+0  00000+0 0  9995","line2":"2 22314  14.1861 356.3413 0009678 202.5339 191.5222  1.00273048123366","mean_motion":1.00273048,"eccentricity":0.0009678,"inclination_deg":14.1861,"raan_deg":356.3413,"arg_perigee_deg":202.5339,"mean_anomaly_deg":191.5222,"bstar":0,"rev_number":12336,"period_min":1436.0788155158,"perigee_km":35745.434215227,"apogee_km":35827.047585091,"semimajor_km":42164.377900159,"source":"CELESTRAK","updated_at":"2026-09-20T09:00:35.114975Z"}}}